Location: Stara Lesna
(49.1528°N, 20.2911°E)
Time: 03:23:40
(UTC+02:00)

Cosmos 1484 Rocket - Pass Details

Date: 21 September 2019
Orbit: 505 x 561 km, 97.4° (Epoch: 20 October)

Event Time Altitude Azimuth Distance (km) Brightness Sun altitude
Rises 05:33:01 0° 17° (NNE) 2,650 6.7 -9.0°
Reaches altitude 10° 05:35:12 10° 24° (NNE) 1,750 5.9 -8.6°
Maximum altitude 05:38:50 47° 99° (E) 682 3.8 -8.0°
Drops below altitude 10° 05:42:25 10° 175° (S) 1,718 5.3 -7.5°
Sets 05:44:33 0° 181° (S) 2,596 6.2 -7.1°
